Погода в Юлдыбаеве

Россия / Республика Башкортостан     52°20′32″N   57°52′28″E
темп.,
°C
ветер,
м/с
пор.,
м/с
влажн.,
%
обл.,
%
осадки,
мм/ч
давл.,
гПа
погр.,
м
6 декабря, пн
пн623:00−2зюз2697100 0.3 1018277
02:00−2юз2898100 1.2 1018374
05:00−3юз41196100 3.1 1018478
08:00−4з379683 0.6 1018231
11:00−3зсз259698 0.7 1019228
14:00−2сз349083 0.0 1019461
17:00−8сз2295100 0.0 102312
20:00−12сз229782 0.0 102632
7 декабря, вт
вт723:00−15сз229727 0.0 102824
02:00−16сз2294100 0.0 102916
05:00−17сз229337 0.0 103211
08:00−19ссз229259 0.0 103312
11:00−13св128271 0.0 103444
14:00−10в12865 0.0 1035154
17:00−17в119820 0.0 10379
20:00−20ссв1110020 0.0 10409
8 декабря, ср
ср823:00−20ссв1110020 0.0 10419
02:00−21с1110058 0.0 10429
05:00−21св1110097 0.0 10439
08:00−20всв11100100 0.0 10439
11:00−15вюв229995 0.0 104274
14:00−11юв2392100 0.0 1042132
17:00−14вюв1198100 0.0 104210
20:00−16вюв1199100 0.0 104311
9 декабря, чт
чт923:00−17вюв119992 0.0 104310
02:00−17в1199100 0.0 104411
05:00−17в1198100 0.0 104311
08:00−18в1196100 0.0 104312
11:00−13вюв2481100 0.0 104287
14:00−10вюв2676100 0.0 1040165
17:00−15в1191100 0.0 104113
20:00−17в119398 0.0 104116
10 декабря, пт
пт1023:00−17в229499 0.0 104028
02:00−17в1193100 0.0 104016
05:00−15в2291100 0.0 103833
08:00−14в2290100 0.0 103737
11:00−11вюв2881100 0.0 1036159
14:00−7юв31077100 0.0 1033226
17:00−10в2389100 0.0 103354
20:00−11всв2393100 0.0 103353